{"data":{"norad_id":40922,"intl_designator":"2015-050C","name":"COSMOS 2509 (RODNIK-S *)","alt_names":[],"object_type":"PAYLOAD","status":"ACTIVE","operator":null,"country":"CIS","launch_date":"2015-09-23","launch_site_code":"PLMSC","launch_vehicle":null,"mission":null,"orbit_class":"UNKNOWN","rcs_meters":1.5012,"size_class":null,"mass_kg":null,"dimensions":null,"purposes":[],"wikipedia_slug":null,"has_3d_model":false,"image_url":null,"decayed_at":null,"tle_current":{"epoch":"2026-05-25T04:26:56.439744Z","epoch_age_seconds":58383,"freshness":"FRESH","line1":"1 40922U 15050C   26145.18537546  .00000074  00000+0  46057-3 0  9990","line2":"2 40922  82.4866  92.6036 0015836  89.5126 270.7768 12.42883075484028","mean_motion":12.42883075,"eccentricity":0.0015836,"inclination_deg":82.4866,"raan_deg":92.6036,"arg_perigee_deg":89.5126,"mean_anomaly_deg":270.7768,"bstar":0.00046057,"rev_number":48402,"period_min":115.85965156055,"perigee_km":1481.9381454376,"apogee_km":1506.8720607866,"semimajor_km":7872.5421031121,"source":"CELESTRAK","updated_at":"2026-05-25T13:37:55.554052Z"}}}